CW0146 Weather Reports


Display with metric or nautical units.
time (UTC)temp
F
wind
direction
speed
MPH
gust
MPH
rain 1hr
in
rain 24hr
in
rain mn
in
humidity
%
barometer
mb
20260905174954 93 198 2.0 3.0 0.00 0.00 0.00 51 1014.0
20260905174454 93 151 1.0 4.0 0.00 0.00 0.00 52 1014.0
20260905173955 93 217 2.0 3.0 0.00 0.00 0.00 51 1014.0
20260905173454 92 121 0.0 2.0 0.00 0.00 0.00 52 1014.0
20260905172954 92 187 2.0 4.0 0.00 0.00 0.00 52 1015.0
20260905172454 91 131 2.0 4.0 0.00 0.00 0.00 52 1015.0
20260905171954 91 78 2.0 3.0 0.00 0.00 0.00 56 1015.0
20260905171454 90 175 3.0 6.0 0.00 0.00 0.00 55 1015.0
20260905170955 91 273 1.0 2.0 0.00 0.00 0.00 57 1015.0
20260905170454 90 218 2.0 4.0 0.00 0.00 0.00 56 1015.0
20260905165954 91 175 3.0 5.0 0.00 0.00 0.00 56 1015.0
20260905165454 90 106 2.0 4.0 0.00 0.00 0.00 57 1015.0
20260905164954 90 185 2.0 5.0 0.00 0.00 0.00 56 1015.0
20260905164454 90 102 1.0 2.0 0.00 0.00 0.00 57 1015.0
20260905163954 90 183 3.0 5.0 0.00 0.00 0.00 59 1015.0
20260905163454 90 185 4.0 7.0 0.00 0.00 0.00 59 1015.0
20260905162954 89 191 2.0 5.0 0.00 0.00 0.00 61 1015.0
20260905162454 89 192 2.0 4.0 0.00 0.00 0.00 61 1015.0
20260905161954 89 131 2.0 3.0 0.00 0.00 0.00 61 1015.0
20260905161454 89 193 3.0 6.0 0.00 0.00 0.00 63 1015.0
20260905160954 89 184 4.0 7.0 0.00 0.00 0.00 63 1015.0
20260905160454 89 177 4.0 6.0 0.00 0.00 0.00 63 1015.0
20260905155954 89 177 4.0 7.0 0.00 0.00 0.00 62 1015.0
20260905155454 89 140 1.0 2.0 0.00 0.00 0.00 64 1015.0
20260905154956 88 181 2.0 3.0 0.00 0.00 0.00 65 1015.0
20260905154454 88 168 1.0 3.0 0.00 0.00 0.00 65 1015.0
20260905153955 87 188 2.0 4.0 0.00 0.00 0.00 69 1015.0
20260905153454 87 170 2.0 4.0 0.00 0.00 0.00 68 1015.0
20260905152955 87 194 3.0 4.0 0.00 0.00 0.00 70 1015.0
20260905152454 86 164 2.0 3.0 0.00 0.00 0.00 71 1015.0
20260905151955 86 184 4.0 6.0 0.00 0.00 0.00 71 1015.0
20260905151454 86 183 2.0 3.0 0.00 0.00 0.00 73 1015.0
20260905150954 85 266 0.0 2.0 0.00 0.00 0.00 74 1015.0
20260905150454 85 214 2.0 4.0 0.00 0.00 0.00 75 1015.0
20260905145954 85 140 1.0 4.0 0.00 0.00 0.00 75 1015.0
20260905145455 84 167 2.0 4.0 0.00 0.00 0.00 76 1015.0
20260905144954 84 184 2.0 3.0 0.00 0.00 0.00 77 1015.0
20260905144454 84 185 2.0 4.0 0.00 0.00 0.00 79 1015.0
20260905143956 83 213 2.0 4.0 0.00 0.00 0.00 79 1015.0
20260905143454 83 178 3.0 4.0 0.00 0.00 0.00 80 1015.0
20260905142954 83 220 1.0 2.0 0.00 0.00 0.00 82 1015.0
20260905142454 82 143 2.0 4.0 0.00 0.00 0.00 83 1015.0
20260905141954 82 184 3.0 5.0 0.00 0.00 0.00 83 1015.0
20260905141455 82 211 1.0 2.0 0.00 0.00 0.00 85 1015.0
20260905140954 81 190 2.0 4.0 0.00 0.00 0.00 86 1015.0
20260905140454 81 172 2.0 4.0 0.00 0.00 0.00 87 1015.0
20260905135954 80 196 2.0 4.0 0.00 0.00 0.00 88 1015.0
20260905135455 80 160 1.0 2.0 0.00 0.00 0.00 89 1015.0
20260905134954 80 203 2.0 3.0 0.00 0.00 0.00 90 1015.0
20260905134454 79 187 2.0 3.0 0.00 0.00 0.00 91 1015.0
20260905133955 79 196 1.0 2.0 0.00 0.00 0.00 92 1015.0
20260905133454 79 198 2.0 3.0 0.00 0.00 0.00 92 1015.0
20260905132956 78 188 1.0 2.0 0.00 0.00 0.00 93 1015.0
20260905132455 78 192 1.0 2.0 0.00 0.00 0.00 93 1015.0
20260905131954 78 78 1.0 2.0 0.00 0.00 0.00 94 1015.0
20260905131454 78 106 1.0 2.0 0.00 0.00 0.00 94 1015.0
20260905130954 77 64 1.0 2.0 0.00 0.00 0.00 94 1015.0
20260905130454 77 35 1.0 3.0 0.00 0.00 0.00 94 1015.0
20260905125954 77 181 0.0 2.0 0.00 0.00 0.00 95 1014.0
20260905125455 77 90 0.0 2.0 0.00 0.00 0.00 95 1014.0
20260905124954 76 143 0.0 1.0 0.00 0.00 0.00 95 1014.0
20260905124454 76 52 0.0 1.0 0.00 0.00 0.00 95 1014.0
20260905123955 76 61 0.0 1.0 0.00 0.00 0.00 95 1014.0
20260905123454 76 60 0.0 1.0 0.00 0.00 0.00 95 1014.0
20260905122954 76 332 0.0 1.0 0.00 0.00 0.00 95 1014.0
20260905122454 76 193 1.0 2.0 0.00 0.00 0.00 95 1014.0
20260905121954 76 144 0.0 1.0 0.00 0.00 0.00 95 1014.0
20260905121455 76 133 0.0 1.0 0.00 0.00 0.00 94 1014.0
20260905120954 76 59 0.0 1.0 0.00 0.00 0.00 94 1014.0
20260905120454 76 46 0.0 1.0 0.00 0.00 0.00 94 1014.0
20260905115954 76 82 0.0 1.0 0.00 0.00 0.00 94 1014.0
20260905115455 76 349 0.0 1.0 0.00 0.00 0.00 94 1014.0
20260905114955 76 352 1.0 2.0 0.00 0.00 0.00 94 1014.0
20260905114455 76 357 0.0 1.0 0.00 0.00 0.00 94 1014.0
20260905113954 76 27 0.0 1.0 0.00 0.00 0.00 94 1014.0
20260905113454 76 50 0.0 1.0 0.00 0.00 0.00 94 1014.0
20260905112954 76 94 0.0 1.0 0.00 0.00 0.00 94 1014.0
20260905112454 76 360 0.0 0.0 0.00 0.00 0.00 94 1014.0
20260905111954 76 360 0.0 0.0 0.00 0.00 0.00 94 1014.0
20260905111454 76 74 0.0 0.0 0.00 0.00 0.00 94 1014.0
20260905110954 76 314 0.0 1.0 0.00 0.00 0.00 94 1014.0
20260905110454 76 119 0.0 1.0 0.00 0.00 0.00 94 1014.0
20260905105954 76 360 0.0 0.0 0.00 0.00 0.00 93 1014.0
20260905105454 76 347 0.0 1.0 0.00 0.00 0.00 93 1014.0
20260905104954 76 43 0.0 1.0 0.00 0.00 0.00 93 1014.0
20260905104454 76 357 0.0 0.0 0.00 0.00 0.00 93 1014.0
20260905103954 76 28 0.0 1.0 0.00 0.00 0.00 93 1014.0
20260905103456 76 39 0.0 2.0 0.00 0.00 0.00 92 1014.0
20260905102954 76 356 0.0 1.0 0.00 0.00 0.00 92 1014.0
20260905102454 77 253 0.0 1.0 0.00 0.00 0.00 92 1014.0
20260905101954 77 26 0.0 1.0 0.00 0.00 0.00 92 1014.0
20260905101454 77 258 0.0 1.0 0.00 0.00 0.00 91 1014.0
20260905100954 77 78 0.0 1.0 0.00 0.00 0.00 91 1014.0
20260905100454 77 215 0.0 1.0 0.00 0.00 0.00 91 1013.0
20260905095955 77 334 0.0 0.0 0.00 0.00 0.00 91 1013.0
20260905095454 77 95 0.0 0.0 0.00 0.00 0.00 91 1013.0
20260905094954 77 72 0.0 1.0 0.00 0.00 0.00 91 1014.0
20260905094454 77 354 0.0 1.0 0.00 0.00 0.00 90 1013.0
20260905093954 77 49 0.0 1.0 0.00 0.00 0.00 90 1013.0
20260905093454 78 232 0.0 1.0 0.00 0.00 0.00 90 1014.0
20260905092954 78 341 0.0 1.0 0.00 0.00 0.00 90 1014.0
20260905092454 78 161 0.0 1.0 0.00 0.00 0.00 89 1014.0
20260905091954 78 278 0.0 2.0 0.00 0.00 0.00 89 1014.0
20260905091454 78 114 0.0 1.0 0.00 0.00 0.00 89 1014.0
20260905090954 78 209 1.0 2.0 0.00 0.00 0.00 88 1014.0
20260905090457 78 187 1.0 2.0 0.00 0.00 0.00 88 1014.0
20260905085954 78 211 1.0 2.0 0.00 0.00 0.00 88 1014.0
20260905085455 78 189 2.0 4.0 0.00 0.00 0.00 88 1014.0
20260905084954 78 177 2.0 3.0 0.00 0.00 0.00 88 1014.0
20260905084454 78 187 2.0 3.0 0.00 0.00 0.00 88 1014.0
20260905083954 78 177 2.0 3.0 0.00 0.00 0.00 88 1014.0
20260905083454 78 183 3.0 4.0 0.00 0.00 0.00 88 1014.0
20260905082954 78 170 2.0 5.0 0.00 0.00 0.00 88 1014.0
20260905082454 78 230 1.0 2.0 0.00 0.00 0.00 88 1014.0
20260905081954 78 199 2.0 3.0 0.00 0.00 0.00 88 1014.0
20260905081454 78 167 2.0 4.0 0.00 0.00 0.00 88 1014.0
20260905081004 78 200 1.0 2.0 0.00 0.00 0.00 88 1014.0
20260905080454 78 192 3.0 4.0 0.00 0.00 0.00 88 1014.0
20260905075955 78 201 1.0 2.0 0.00 0.00 0.00 87 1014.0
20260905075454 78 46 0.0 2.0 0.00 0.00 0.00 87 1014.0
20260905074955 78 183 2.0 5.0 0.00 0.00 0.00 87 1014.0
20260905074454 78 39 1.0 3.0 0.00 0.00 0.00 86 1014.0
20260905073954 78 141 1.0 2.0 0.00 0.00 0.00 86 1014.0
20260905073454 78 162 2.0 3.0 0.00 0.00 0.00 86 1014.0
20260905072955 78 175 0.0 1.0 0.00 0.00 0.00 85 1014.0
20260905072455 79 182 1.0 2.0 0.00 0.00 0.00 85 1014.0
20260905071954 79 187 1.0 2.0 0.00 0.00 0.00 85 1014.0
20260905071454 79 221 1.0 2.0 0.00 0.00 0.00 84 1014.0
20260905070953 79 57 0.0 2.0 0.00 0.00 0.00 84 1014.0
20260905070454 79 171 1.0 2.0 0.00 0.00 0.00 83 1014.0
20260905065954 79 201 1.0 3.0 0.00 0.00 0.00 83 1014.0
20260905065454 79 191 3.0 5.0 0.00 0.00 0.00 83 1014.0
20260905064954 79 194 2.0 3.0 0.00 0.00 0.00 83 1014.0
20260905064454 79 163 1.0 1.0 0.00 0.00 0.00 83 1014.0
20260905063955 79 225 0.0 1.0 0.00 0.00 0.00 82 1014.0
20260905063454 79 175 1.0 2.0 0.00 0.00 0.00 82 1014.0
20260905062954 79 200 2.0 3.0 0.00 0.00 0.00 82 1014.0
20260905062454 79 165 1.0 2.0 0.00 0.00 0.00 82 1014.0
20260905061954 80 203 1.0 1.0 0.00 0.00 0.00 81 1014.0
20260905061454 80 324 0.0 2.0 0.00 0.00 0.00 81 1014.0
20260905060954 80 184 1.0 3.0 0.00 0.00 0.00 81 1014.0
20260905060455 80 161 1.0 2.0 0.00 0.00 0.00 80 1014.0
20260905055955 80 56 1.0 4.0 0.00 0.00 0.00 80 1014.0
20260905055454 80 96 1.0 2.0 0.00 0.00 0.00 80 1014.0
20260905054954 80 331 1.0 2.0 0.00 0.00 0.00 80 1014.0
20260905054454 80 233 1.0 2.0 0.00 0.00 0.00 79 1014.0
20260905053954 80 58 2.0 5.0 0.00 0.00 0.00 79 1014.0
20260905053454 80 198 1.0 2.0 0.00 0.00 0.00 79 1014.0
20260905052954 80 79 1.0 2.0 0.00 0.00 0.00 79 1014.0
20260905052454 80 137 1.0 2.0 0.00 0.00 0.00 79 1014.0
20260905051954 80 88 1.0 4.0 0.00 0.00 0.00 79 1014.0
20260905051454 80 338 1.0 2.0 0.00 0.00 0.00 78 1014.0
20260905050954 80 354 1.0 2.0 0.00 0.00 0.00 78 1014.0
20260905050454 80 336 1.0 2.0 0.00 0.00 0.00 78 1014.0
20260905045954 80 209 2.0 4.0 0.00 0.00 0.32 79 1014.0
20260905045454 80 275 1.0 2.0 0.00 0.00 0.32 80 1014.0
20260905044955 80 302 1.0 2.0 0.00 0.00 0.32 80 1014.0
20260905044454 80 266 1.0 1.0 0.00 0.00 0.32 80 1014.0
20260905043954 80 217 1.0 1.0 0.00 0.00 0.32 80 1014.0
20260905043454 80 73 1.0 2.0 0.00 0.00 0.32 79 1014.0
20260905042954 80 340 1.0 2.0 0.00 0.00 0.32 79 1014.0
20260905042454 80 13 0.0 1.0 0.00 0.00 0.32 80 1014.0
20260905041954 80 306 1.0 2.0 0.00 0.00 0.32 80 1014.0
20260905041454 80 321 1.0 3.0 0.00 0.00 0.32 81 1014.0
20260905040956 80 314 0.0 1.0 0.00 0.00 0.32 80 1014.0
20260905040454 80 312 1.0 2.0 0.00 0.00 0.32 81 1014.0
20260905035954 80 337 1.0 1.0 0.00 0.00 0.32 81 1014.0
20260905035454 80 7 1.0 2.0 0.00 0.00 0.32 81 1014.0
20260905034954 80 339 1.0 2.0 0.00 0.00 0.32 82 1014.0
20260905034454 80 355 1.0 2.0 0.00 0.00 0.32 82 1014.0
20260905033954 80 330 1.0 2.0 0.00 0.00 0.32 81 1014.0
20260905033454 80 1 1.0 1.0 0.00 0.00 0.32 81 1014.0
20260905032955 80 36 0.0 2.0 0.00 0.00 0.32 81 1014.0
20260905032454 80 50 1.0 2.0 0.00 0.00 0.32 81 1014.0
20260905031954 80 332 1.0 2.0 0.00 0.00 0.32 81 1014.0
20260905031454 81 350 0.0 1.0 0.00 0.00 0.32 81 1014.0
20260905030954 81 60 1.0 2.0 0.00 0.00 0.32 80 1014.0
20260905030454 81 64 0.0 1.0 0.00 0.00 0.32 80 1014.0
20260905025954 81 53 1.0 1.0 0.00 0.00 0.32 79 1014.0
20260905025455 81 79 0.0 1.0 0.00 0.00 0.32 79 1014.0
20260905024954 81 96 0.0 2.0 0.00 0.00 0.32 78 1014.0
20260905024454 82 75 1.0 2.0 0.00 0.00 0.32 78 1014.0
20260905023955 81 52 0.0 1.0 0.00 0.00 0.32 78 1014.0
20260905023454 81 98 1.0 1.0 0.00 0.00 0.32 79 1014.0
20260905022955 81 46 1.0 1.0 0.00 0.00 0.32 79 1014.0
20260905022454 81 49 0.0 1.0 0.00 0.00 0.32 79 1014.0
20260905021954 81 60 0.0 1.0 0.00 0.00 0.32 79 1014.0
20260905021454 81 55 0.0 1.0 0.00 0.00 0.32 80 1014.0
20260905020955 81 25 0.0 2.0 0.00 0.00 0.32 80 1013.0
20260905020454 81 76 1.0 1.0 0.00 0.00 0.32 80 1013.0
20260905015954 81 81 1.0 1.0 0.00 0.00 0.32 79 1013.0
20260905015454 81 82 0.0 1.0 0.00 0.00 0.32 80 1013.0
20260905014954 81 63 0.0 2.0 0.00 0.00 0.32 81 1013.0
20260905014454 81 83 1.0 2.0 0.00 0.00 0.32 82 1013.0
20260905013954 81 63 0.0 1.0 0.00 0.00 0.32 82 1013.0
20260905013454 81 97 0.0 2.0 0.00 0.00 0.32 83 1013.0
20260905012954 81 81 0.0 0.0 0.00 0.00 0.32 83 1013.0
20260905012454 81 29 0.0 1.0 0.00 0.00 0.32 83 1013.0
20260905011956 81 42 0.0 2.0 0.00 0.00 0.32 82 1013.0
20260905011454 81 55 1.0 2.0 0.00 0.00 0.32 83 1013.0
20260905010955 81 52 1.0 1.0 0.00 0.00 0.32 84 1013.0
20260905010454 81 39 1.0 3.0 0.00 0.00 0.32 84 1013.0
20260905005954 81 51 1.0 1.0 0.00 0.00 0.31 84 1013.0
20260905005454 81 53 1.0 2.0 0.00 0.00 0.31 84 1013.0
20260905004954 81 45 1.0 4.0 0.00 0.00 0.31 83 1013.0
20260905004455 81 57 1.0 2.0 0.00 0.00 0.31 83 1013.0
20260905003954 82 61 1.0 2.0 0.00 0.00 0.31 83 1013.0
20260905003454 82 41 1.0 6.0 0.00 0.00 0.31 83 1013.0
20260905002954 82 52 1.0 2.0 0.00 0.00 0.31 84 1013.0
20260905002454 82 44 1.0 2.0 0.00 0.00 0.31 83 1013.0
20260905001954 82 76 1.0 3.0 0.00 0.00 0.32 83 1013.0
20260905001503 82 84 0.0 1.0 0.00 0.00 0.32 83 1012.0
20260905000954 81 79 0.0 1.0 0.00 0.00 0.32 85 1012.0
20260905000455 81 95 0.0 1.0 0.00 0.00 0.32 87 1012.0
20260904235954 80 54 0.0 2.0 0.00 0.00 0.33 87 1013.0
20260904235454 80 79 1.0 2.0 0.00 0.00 0.33 88 1013.0
20260904234954 80 71 0.0 1.0 0.00 0.00 0.33 89 1013.0
20260904234454 79 72 0.0 1.0 0.00 0.00 0.33 89 1013.0
20260904233954 79 360 0.0 0.0 0.00 0.00 0.33 90 1013.0
20260904233454 79 78 1.0 2.0 0.00 0.00 0.33 89 1012.0
20260904232954 78 43 0.0 2.0 0.00 0.00 0.33 89 1012.0
20260904232454 78 75 1.0 3.0 0.00 0.00 0.31 89 1013.0
20260904231954 78 33 0.0 1.0 0.00 0.00 0.31 89 1013.0
20260904231455 78 23 0.0 2.0 0.00 0.00 0.31 88 1013.0
20260904230955 78 235 1.0 3.0 0.02 0.00 0.31 87 1013.0
20260904230454 78 229 1.0 3.0 0.08 0.00 0.34 86 1013.0
20260904225955 78 194 1.0 2.0 0.23 0.00 0.33 85 1013.0
20260904225456 80 103 3.0 6.0 1.31 0.00 0.28 83 1013.0
20260904224954 84 92 3.0 5.0 1.68 0.00 0.14 77 1013.0
20260904224500 88 100 4.0 7.0 0.55 0.00 0.06 71 1013.0
20260904223954 92 97 3.0 5.0 0.00 0.00 0.04 56 1012.0
20260904223455 94 97 2.0 6.0 0.00 0.00 0.04 54 1012.0
20260904222954 96 162 3.0 7.0 0.00 0.00 0.04 46 1012.0
20260904222454 96 188 2.0 4.0 0.00 0.00 0.04 47 1012.0
20260904221954 96 177 3.0 5.0 0.00 0.00 0.04 47 1012.0
20260904221454 97 177 3.0 6.0 0.00 0.00 0.04 46 1012.0
20260904220955 96 140 2.0 4.0 0.00 0.00 0.04 45 1012.0
20260904220454 96 179 2.0 4.0 0.00 0.00 0.04 45 1012.0
20260904215955 96 190 2.0 4.0 0.00 0.00 0.04 47 1012.0
20260904215454 95 169 3.0 5.0 0.00 0.00 0.04 47 1012.0
20260904214954 95 179 3.0 4.0 0.00 0.00 0.04 45 1012.0
20260904214455 95 171 4.0 6.0 0.00 0.00 0.04 46 1012.0
20260904213954 95 182 3.0 7.0 0.00 0.00 0.04 47 1012.0
20260904213454 95 183 3.0 5.0 0.00 0.00 0.04 47 1012.0
20260904212955 95 177 5.0 7.0 0.00 0.00 0.04 46 1013.0
20260904212454 94 143 2.0 4.0 0.00 0.00 0.04 47 1013.0
20260904211954 94 172 4.0 6.0 0.00 0.00 0.04 47 1013.0
20260904211454 94 182 5.0 9.0 0.00 0.00 0.04 46 1013.0
20260904210954 94 178 3.0 4.0 0.00 0.00 0.04 47 1013.0
20260904210454 93 194 2.0 4.0 0.00 0.00 0.04 49 1013.0
20260904205955 93 172 4.0 6.0 0.00 0.00 0.04 50 1013.0
20260904205455 94 185 4.0 5.0 0.00 0.00 0.04 49 1013.0
20260904204954 94 195 2.0 4.0 0.00 0.00 0.04 50 1013.0
20260904204455 94 172 4.0 5.0 0.00 0.00 0.04 48 1013.0
20260904203955 94 167 4.0 6.0 0.00 0.00 0.04 49 1013.0
20260904203456 94 172 3.0 6.0 0.00 0.00 0.04 49 1013.0
20260904202955 94 176 3.0 6.0 0.00 0.00 0.04 49 1013.0
20260904202454 93 183 2.0 4.0 0.00 0.00 0.04 50 1013.0
20260904201954 93 186 2.0 4.0 0.00 0.00 0.04 51 1013.0
20260904201454 92 157 2.0 4.0 0.00 0.00 0.04 52 1013.0
20260904200954 92 169 3.0 6.0 0.00 0.00 0.04 54 1014.0
20260904200455 92 178 3.0 7.0 0.00 0.00 0.04 53 1014.0
20260904195954 92 131 1.0 2.0 0.00 0.00 0.04 54 1014.0
20260904195454 92 186 2.0 3.0 0.00 0.00 0.04 55 1014.0
20260904194954 92 171 3.0 6.0 0.00 0.00 0.04 55 1014.0
20260904194454 92 176 4.0 7.0 0.00 0.00 0.04 55 1014.0
20260904193954 91 173 4.0 9.0 0.00 0.00 0.04 54 1014.0
20260904193455 91 175 3.0 4.0 0.00 0.00 0.04 55 1014.0
20260904192955 91 185 3.0 8.0 0.00 0.00 0.04 55 1014.0
20260904192454 90 150 3.0 5.0 0.00 0.00 0.04 56 1014.0
20260904191954 90 183 4.0 8.0 0.00 0.00 0.04 55 1014.0
20260904191455 90 162 3.0 7.0 0.00 0.00 0.04 60 1014.0
20260904190954 90 187 4.0 6.0 0.00 0.00 0.04 58 1014.0
20260904190454 89 180 4.0 6.0 0.00 0.00 0.04 61 1014.0
20260904185954 88 137 2.0 2.0 0.00 0.00 0.04 61 1014.0
20260904185454 88 182 2.0 4.0 0.00 0.00 0.04 63 1014.0
20260904184956 87 188 2.0 5.0 0.00 0.00 0.04 63 1015.0
20260904184454 87 159 2.0 6.0 0.00 0.00 0.04 64 1015.0
20260904183955 87 175 2.0 5.0 0.00 0.00 0.04 64 1015.0
20260904183454 87 177 3.0 6.0 0.00 0.00 0.04 64 1015.0
20260904182954 87 182 2.0 3.0 0.00 0.00 0.04 65 1015.0
20260904182455 87 175 3.0 6.0 0.00 0.00 0.04 66 1015.0
20260904181954 87 170 3.0 6.0 0.00 0.00 0.04 66 1015.0
20260904181454 87 189 3.0 6.0 0.00 0.00 0.04 65 1015.0
20260904180954 86 170 3.0 5.0 0.00 0.00 0.04 66 1015.0
20260904180454 87 160 3.0 7.0 0.00 0.00 0.04 65 1015.0
20260904175954 87 178 3.0 5.0 0.00 0.00 0.04 65 1015.0
20260904175454 86 171 4.0 7.0 0.00 0.00 0.04 65 1015.0